Hourly Data Report for May 08, 2021

WINNIPEG THE FORKS
MANITOBA
Current Station Operator: ECCC - MSC

49°53'18.008" N
97°07'46.007" W
230.00 m
5023262
71579
XWN

Download Data

Hourly Data (May 2021)
Hourly Data Report for May 8, 2021
TIME
LST
Temp Definition
°C
Dew Point Definition
°C
Rel Hum Definition
%
Precip. Amount Definition
mm

Wind Dir Definition
10's deg

Wind Spd Definition
km/h
Visibility Definition
km
Stn Press Definition
kPa
Hmdx Definition


Wind Chill Definition


Weather Definition


00:00 4.7 -3.9 54 0.0 1 4   99.42     LegendNANA
01:00 4.1 -4.9 52 0.0 35 7   99.41     LegendNANA
02:00 3.1 -5.9 51 0.0 36 6   99.39     LegendNANA
03:00 1.7 -5.8 58 0.0 1 7   99.38     LegendNANA
04:00 0.7 -4.5 68 0.0 35 6   99.37     LegendNANA
05:00 0.0 -4.4 72 0.0 33 3   99.41   -1 LegendNANA
06:00 0.0 -4.0 74 0.0 35 6   99.45   -2 LegendNANA
07:00 3.0 -2.9 65 0.0 1 7   99.44     LegendNANA
08:00 5.6 -2.8 55 0.0 4 8   99.42     LegendNANA
09:00 7.3 -2.8 48 0.0 3 8   99.40     LegendNANA
10:00 8.1 -5.8 37 0.0 1 11   99.40     LegendNANA
11:00 10.2 -5.1 34 0.0 2 10   99.42     LegendNANA
12:00 10.3 -8.6 25 0.0 1 9   99.38     LegendNANA
13:00 11.1 -9.4 23 0.0 35 12   99.31     LegendNANA
14:00 11.7 -7.5 25 0.0 1 11   99.25     LegendNANA
15:00 12.1 -7.1 25 0.0 1 13   99.20     LegendNANA
16:00 12.7 -7.8 23 0.0 2 11   99.17     LegendNANA
17:00 12.3 -8.4 23 0.0 2 12   99.20     LegendNANA
18:00 11.3 -7.7 26 0.0 1 16   99.19     LegendNANA
19:00 10.2 -8.0 27 0.0 2 13   99.28     LegendNANA
20:00 9.0 -7.1 31 0.0 2 12   99.35     LegendNANA
21:00 7.5 -5.4 40 0.0 1 13   99.41     LegendNANA
22:00 6.0 -4.9 45 0.0 36 8   99.40     LegendNANA
23:00 5.0 -4.6 50 0.0 36 11   99.41     LegendNANA

Notes on Data Quality.

Legend

  • E = Estimated
  • M = Missing
  • NA = Not Available*
  • [empty] = Indicates an unobserved value
Date modified: